-------------------------------------------------------------------------------------------,,,,
NDVI data collected from in situ Skye sensors      ,,,,
" at study site 1, Dookie, Victoria, Australia.",,,,
                                                                                           ,,,,
 Source: Akuraju et al.2019                   ,,,,
 Link:------        ,,,,
                                                                                           ,,,,
 Please cite as:                                                                           ,,,,
                                                                                           ,,,,
                                                                                           ,,,,
" If it is necessary to cite a peer-reviewed article, please cite as:                       ",,,,
                                                                                           ,,,,
                                                                                           ,,,,
-------------------------------------------------------------------------------------------,,,,
                                                                                           ,,,,
The data file below contains 5 columns.,,,,
"Columns 1-3 represents year, month and date.",,,,
Column 4 gives average NDVI values from mid-day (12 to 2 pm),,,,
Column 5 provides NDVI values after applying  Savitzky�Golay filter,,,,
,,,,
Year,Month,Day,NDVI,NDVI_Filter
2014,1,1,0.05,0.044
2014,1,2,0.046,0.041
2014,1,3,0.039,0.04
2014,1,4,0.033,0.038
2014,1,5,0.031,0.036
2014,1,6,0.028,0.035
2014,1,7,0.027,0.034
2014,1,8,0.033,0.032
2014,1,9,0.032,0.032
2014,1,10,0.034,0.031
2014,1,11,0.033,0.031
2014,1,12,0.032,0.031
2014,1,13,0.033,0.032
2014,1,14,0.032,0.031
2014,1,15,0.031,0.027
2014,1,16,0.032,0.03
2014,1,17,0.029,0.031
2014,1,18,0.03,0.033
2014,1,19,0.024,0.034
2014,1,20,0.029,0.034
2014,1,21,0.029,0.034
2014,1,22,0.028,0.033
2014,1,23,0.031,0.032
2014,1,24,0.092,0.032
2014,1,25,0.024,0.032
2014,1,26,0.022,0.03
2014,1,27,0.016,0.029
2014,1,28,0.016,0.03
2014,1,29,0.03,0.031
2014,1,30,0.026,0.032
2014,1,31,0.032,0.033
2014,2,1,0.033,0.033
2014,2,2,0.037,0.033
2014,2,3,0.033,0.04
2014,2,4,0.064,0.043
2014,2,5,0.053,0.045
2014,2,6,0.045,0.039
2014,2,7,0.044,0.044
2014,2,8,0.041,0.05
2014,2,9,0.038,0.056
2014,2,10,0.055,0.059
2014,2,11,0.057,0.062
2014,2,12,0.054,0.064
2014,2,13,0.051,0.066
2014,2,14,0.058,0.072
2014,2,15,0.183,0.075
2014,2,16,0.068,0.077
2014,2,17,0.066,0.078
2014,2,18,0.043,0.078
2014,2,19,0.075,0.077
2014,2,20,0.077,0.075
2014,2,21,0.077,0.075
2014,2,22,0.076,0.074
2014,2,23,0.058,0.071
2014,2,24,0.074,0.066
2014,2,25,0.068,0.075
2014,2,26,0.082,0.076
2014,2,27,0.073,0.077
2014,2,28,0.078,0.075
2014,3,1,0.093,0.075
2014,3,2,0.07,0.075
2014,3,3,0.065,0.073
2014,3,4,0.068,0.072
2014,3,5,0.08,0.07
2014,3,6,0.069,0.068
2014,3,7,0.066,0.064
2014,3,8,0.064,0.063
2014,3,9,0.06,0.063
2014,3,10,0.058,0.064
2014,3,11,0.056,0.067
2014,3,12,0.073,0.068
2014,3,13,0.068,0.071
2014,3,14,0.065,0.073
2014,3,15,0.069,0.077
2014,3,16,0.1,0.08
2014,3,17,0.094,0.082
2014,3,18,0.088,0.079
2014,3,19,0.085,0.082
2014,3,20,0.083,0.086
2014,3,21,0.096,0.085
2014,3,22,0.082,0.089
2014,3,23,0.085,0.095
2014,3,24,0.083,0.102
2014,3,25,0.091,0.101
2014,3,26,0.097,0.111
2014,3,27,0.183,0.125
2014,3,28,0.138,0.145
2014,3,29,0.136,0.167
2014,3,30,0.203,0.19
2014,3,31,0.206,0.203
2014,4,1,0.192,0.218
2014,4,2,0.205,0.243
2014,4,3,0.349,0.27
2014,4,4,0.339,0.299
2014,4,5,0.345,0.329
2014,4,6,0.324,0.366
2014,4,7,0.331,0.401
2014,4,8,0.327,0.436
2014,4,9,0.52,0.474
2014,4,10,0.594,0.51
2014,4,11,0.56,0.542
2014,4,12,0.572,0.568
2014,4,13,0.599,0.601
2014,4,14,0.626,0.626
2014,4,15,0.651,0.66
2014,4,16,0.661,0.685
2014,4,17,0.661,0.695
2014,4,18,0.658,0.678
2014,4,19,0.655,0.646
2014,4,20,0.636,0.607
2014,4,21,0.631,0.546
2014,4,22,0.604,0.485
2014,4,23,0.61,0.426
2014,4,24,0.374,0.375
2014,4,25,0.205,0.32
2014,4,26,0.074,0.275
2014,4,27,0.045,0.24
2014,4,28,0.145,0.213
2014,4,29,0.152,0.195
2014,4,30,0.319,0.186
2014,5,1,0.297,0.188
2014,5,2,0.269,0.197
2014,5,3,0.19,0.221
2014,5,4,0.293,0.236
2014,5,5,0.254,0.239
2014,5,6,0.211,0.229
2014,5,7,0.186,0.208
2014,5,8,0.167,0.188
2014,5,9,0.15,0.164
2014,5,10,0.133,0.152
2014,5,11,0.158,0.141
2014,5,12,0.133,0.13
2014,5,13,0.124,0.114
2014,5,14,0.121,0.109
2014,5,15,0.112,0.11
2014,5,16,0.107,0.102
2014,5,17,0.106,0.104
2014,5,18,0.108,0.118
2014,5,19,0.114,0.138
2014,5,20,0.138,0.159
2014,5,21,0.149,0.184
2014,5,22,0.187,0.209
2014,5,23,0.22,0.228
2014,5,24,0.219,0.251
2014,5,25,0.389,0.274
2014,5,26,0.395,0.294
2014,5,27,0.328,0.311
2014,5,28,0.303,0.328
2014,5,29,0.305,0.344
2014,5,30,0.305,0.358
2014,5,31,0.316,0.37
2014,6,1,0.402,0.383
2014,6,2,0.402,0.395
2014,6,3,0.397,0.404
2014,6,4,0.438,0.423
2014,6,5,0.479,0.446
2014,6,6,0.483,0.465
2014,6,7,0.484,0.486
2014,6,8,0.509,0.504
2014,6,9,0.518,0.521
2014,6,10,0.515,0.539
2014,6,11,0.535,0.558
2014,6,12,0.543,0.578
2014,6,13,0.603,0.595
2014,6,14,0.632,0.613
2014,6,15,0.667,0.643
2014,6,16,0.648,0.657
2014,6,17,0.69,0.669
2014,6,18,0.696,0.683
2014,6,19,0.674,0.693
2014,6,20,0.719,0.702
2014,6,21,0.717,0.708
2014,6,22,0.738,0.712
2014,6,23,0.736,0.716
2014,6,24,0.594,0.724
2014,6,25,0.743,0.731
2014,6,26,0.757,0.736
2014,6,27,0.752,0.743
2014,6,28,0.766,0.752
2014,6,29,0.765,0.757
2014,6,30,0.77,0.766
2014,7,1,0.773,0.774
2014,7,2,0.796,0.783
2014,7,3,0.762,0.791
2014,7,4,0.795,0.787
2014,7,5,0.789,0.792
2014,7,6,0.808,0.796
2014,7,7,0.787,0.799
2014,7,8,0.805,0.802
2014,7,9,0.801,0.804
2014,7,10,0.805,0.806
2014,7,11,0.811,0.809
2014,7,12,0.834,0.814
2014,7,13,0.808,0.814
2014,7,14,0.796,0.816
2014,7,15,0.816,0.816
2014,7,16,0.813,0.816
2014,7,17,0.817,0.815
2014,7,18,0.833,0.814
2014,7,19,0.828,0.813
2014,7,20,0.803,0.812
2014,7,21,0.804,0.811
2014,7,22,0.809,0.814
2014,7,23,0.797,0.814
2014,7,24,0.814,0.813
2014,7,25,0.813,0.814
2014,7,26,0.819,0.814
2014,7,27,0.819,0.815
2014,7,28,0.828,0.818
2014,7,29,0.821,0.821
2014,7,30,0.83,0.822
2014,7,31,0.804,0.822
2014,8,1,0.826,0.823
2014,8,2,0.828,0.821
2014,8,3,0.824,0.821
2014,8,4,0.823,0.822
2014,8,5,0.823,0.823
2014,8,6,0.815,0.824
2014,8,7,0.821,0.826
2014,8,8,0.822,0.827
2014,8,9,0.829,0.829
2014,8,10,0.833,0.829
2014,8,11,0.841,0.83
2014,8,12,0.837,0.832
2014,8,13,0.833,0.833
2014,8,14,0.83,0.834
2014,8,15,0.831,0.835
2014,8,16,0.833,0.836
2014,8,17,0.835,0.836
2014,8,18,0.829,0.836
2014,8,19,0.835,0.836
2014,8,20,0.842,0.836
2014,8,21,0.83,0.836
2014,8,22,0.835,0.835
2014,8,23,0.833,0.831
2014,8,24,0.83,0.824
2014,8,25,0.823,0.819
2014,8,26,0.814,0.812
2014,8,27,0.802,0.803
2014,8,28,0.788,0.789
2014,8,29,0.771,0.773
2014,8,30,0.75,0.754
2014,8,31,0.727,0.729
2014,9,1,0.724,0.71
2014,9,2,0.728,0.689
2014,9,3,0.66,0.668
2014,9,4,0.622,0.646
2014,9,5,0.597,0.621
2014,9,6,0.575,0.595
2014,9,7,0.56,0.568
2014,9,8,0.557,0.537
2014,9,9,0.579,0.508
2014,9,10,0.483,0.482
2014,9,11,0.479,0.461
2014,9,12,0.414,0.446
2014,9,13,0.395,0.429
2014,9,14,0.384,0.413
2014,9,15,0.379,0.397
2014,9,16,0.364,0.381
2014,9,17,0.418,0.367
2014,9,18,0.401,0.364
2014,9,19,0.4,0.368
2014,9,20,0.381,0.373
2014,9,21,0.363,0.387
2014,9,22,0.375,0.404
2014,9,23,0.387,0.427
2014,9,24,0.414,0.457
2014,9,25,0.481,0.491
2014,9,26,0.55,0.527
2014,9,27,0.546,0.569
2014,9,28,0.623,0.611
2014,9,29,0.676,0.652
2014,9,30,0.715,0.69
2014,10,1,0.761,0.721
2014,10,2,0.761,0.746
2014,10,3,0.766,0.764
2014,10,4,0.769,0.773
2014,10,5,0.768,0.779
2014,10,6,0.77,0.783
2014,10,7,0.779,0.779
2014,10,8,0.776,0.775
2014,10,9,0.769,0.77
2014,10,10,0.767,0.766
2014,10,11,0.76,0.764
2014,10,12,0.752,0.762
2014,10,13,0.752,0.759
2014,10,14,0.759,0.757
2014,10,15,0.751,0.753
2014,10,16,0.752,0.749
2014,10,17,0.746,0.745
2014,10,18,0.741,0.738
2014,10,19,0.738,0.732
2014,10,20,0.728,0.725
2014,10,21,0.718,0.718
2014,10,22,0.707,0.708
2014,10,23,0.691,0.697
2014,10,24,0.68,0.685
2014,10,25,0.665,0.672
2014,10,26,0.647,0.656
2014,10,27,0.654,0.639
2014,10,28,0.633,0.619
2014,10,29,0.596,0.596
2014,10,30,0.57,0.571
2014,10,31,0.55,0.544
2014,11,1,0.522,0.514
2014,11,2,0.485,0.485
2014,11,3,0.444,0.455
2014,11,4,0.417,0.423
2014,11,5,0.369,0.39
2014,11,6,0.34,0.355
2014,11,7,0.309,0.318
2014,11,8,0.278,0.28
2014,11,9,0.247,0.24
2014,11,10,0.219,0.198
